Time,TemperatureF,DewpointF,PressureIn,WindDirection,WindDirectionDegrees,WindSpeedMPH,WindSpeedGustMPH,Humidity,HourlyPrecipIn,Conditions,Clouds,dailyrainin,SoftwareType,DateUTC
2013-01-25 00:03:00,1.0,-7.0,27.96,WNW,291,1.0,7.0,68,0.00,,,0.00,,2013-01-25 05:03:00,
2013-01-25 00:12:00,1.0,-7.0,27.96,North,9,1.0,8.0,68,0.00,,,0.00,,2013-01-25 05:12:00,
2013-01-25 00:22:00,1.0,-7.0,27.96,North,9,1.0,8.0,68,0.00,,,0.00,,2013-01-25 05:22:00,
2013-01-25 00:32:00,1.0,-7.0,27.96,West,274,2.0,8.0,68,0.00,,,0.00,,2013-01-25 05:32:00,
2013-01-25 00:43:00,1.0,-7.0,27.96,West,274,2.0,8.0,68,0.00,,,0.00,,2013-01-25 05:43:00,
2013-01-25 00:52:00,1.0,-8.0,27.97,East,100,2.0,10.0,66,0.00,,,0.00,,2013-01-25 05:52:00,
2013-01-25 01:02:00,1.0,-8.0,27.96,WSW,242,4.0,7.0,65,0.00,,,0.00,,2013-01-25 06:02:00,
2013-01-25 01:11:00,1.0,-8.0,27.96,WSW,242,4.0,7.0,65,0.00,,,0.00,,2013-01-25 06:11:00,
2013-01-25 01:22:00,1.0,-8.0,27.96,WSW,242,4.0,7.0,65,0.00,,,0.00,,2013-01-25 06:22:00,
2013-01-25 01:32:00,0.0,-9.0,27.97,WNW,285,2.0,5.0,65,0.00,,,0.00,,2013-01-25 06:32:00,
2013-01-25 01:42:00,0.0,-9.0,27.97,WNW,285,2.0,5.0,65,0.00,,,0.00,,2013-01-25 06:42:00,
2013-01-25 01:52:00,0.0,-9.0,27.98,SE,127,2.0,9.0,65,0.00,,,0.00,,2013-01-25 06:52:00,
2013-01-25 02:02:00,0.0,-9.0,27.99,WNW,288,1.0,4.0,66,0.00,,,0.00,,2013-01-25 07:02:00,
2013-01-25 02:11:00,0.0,-9.0,27.99,WNW,288,1.0,4.0,66,0.00,,,0.00,,2013-01-25 07:11:00,
2013-01-25 02:22:00,0.0,-9.0,27.99,WNW,288,1.0,4.0,66,0.00,,,0.00,,2013-01-25 07:22:00,
2013-01-25 02:32:00,0.0,-9.0,27.99,WNW,288,1.0,4.0,66,0.00,,,0.00,,2013-01-25 07:32:00,
2013-01-25 02:42:00,0.0,-9.0,27.99,WNW,288,1.0,4.0,66,0.00,,,0.00,,2013-01-25 07:42:00,
2013-01-25 02:52:00,-1.0,-9.0,27.99,NW,314,1.0,5.0,68,0.00,,,0.00,,2013-01-25 07:52:00,
2013-01-25 03:02:00,-1.0,-9.0,27.99,WNW,298,2.0,5.0,68,0.00,,,0.00,,2013-01-25 08:02:00,
2013-01-25 03:12:00,-1.0,-9.0,27.99,NE,45,1.0,7.0,68,0.00,,,0.00,,2013-01-25 08:12:00,
2013-01-25 03:21:00,-1.0,-9.0,27.99,NE,45,1.0,7.0,68,0.00,,,0.00,,2013-01-25 08:21:00,
2013-01-25 03:32:00,-1.0,-9.0,27.99,West,281,1.0,8.0,68,0.00,,,0.00,,2013-01-25 08:32:00,
2013-01-25 03:42:00,-1.0,-9.0,27.99,West,281,1.0,8.0,68,0.00,,,0.00,,2013-01-25 08:42:00,
2013-01-25 03:52:00,-1.0,-9.0,27.98,WNW,283,3.0,8.0,69,0.00,,,0.00,,2013-01-25 08:52:00,
2013-01-25 04:02:00,-1.0,-9.0,27.98,WSW,257,3.0,8.0,69,0.00,,,0.00,,2013-01-25 09:02:00,
2013-01-25 04:11:00,-1.0,-9.0,27.98,WSW,257,3.0,8.0,69,0.00,,,0.00,,2013-01-25 09:11:00,
2013-01-25 04:21:00,-1.0,-9.0,27.97,East,98,1.0,11.0,69,0.00,,,0.00,,2013-01-25 09:21:00,
2013-01-25 04:32:00,-2.0,-9.0,27.97,East,99,1.0,6.0,70,0.00,,,0.00,,2013-01-25 09:32:00,
2013-01-25 04:42:00,-2.0,-9.0,27.97,East,99,1.0,6.0,70,0.00,,,0.00,,2013-01-25 09:42:00,
2013-01-25 04:52:00,-2.0,-9.0,27.98,WNW,303,2.0,8.0,71,0.00,,,0.00,,2013-01-25 09:52:00,
2013-01-25 05:02:00,-2.0,-9.0,27.98,ENE,73,2.0,5.0,71,0.00,,,0.00,,2013-01-25 10:02:00,
2013-01-25 05:12:00,-2.0,-9.0,27.98,ENE,73,2.0,5.0,71,0.00,,,0.00,,2013-01-25 10:12:00,
2013-01-25 05:22:00,-2.0,-9.0,27.99,SSE,149,3.0,5.0,71,0.00,,,0.00,,2013-01-25 10:22:00,
2013-01-25 05:32:00,-2.0,-9.0,27.99,SSE,149,3.0,5.0,71,0.00,,,0.00,,2013-01-25 10:32:00,
2013-01-25 05:42:00,-2.0,-9.0,27.99,SSE,149,3.0,5.0,71,0.00,,,0.00,,2013-01-25 10:42:00,
2013-01-25 05:52:00,-2.0,-9.0,27.98,East,92,3.0,5.0,71,0.00,,,0.00,,2013-01-25 10:52:00,
2013-01-25 06:02:00,-2.0,-9.0,27.98,South,173,2.0,5.0,71,0.00,,,0.00,,2013-01-25 11:02:00,
2013-01-25 06:11:00,-2.0,-9.0,27.98,South,173,2.0,5.0,71,0.00,,,0.00,,2013-01-25 11:11:00,
2013-01-25 06:22:00,-2.0,-10.0,27.99,West,263,3.0,7.0,69,0.00,,,0.00,,2013-01-25 11:22:00,
2013-01-25 06:33:00,-2.0,-9.0,27.99,ENE,69,1.0,2.0,70,0.00,,,0.00,,2013-01-25 11:33:00,
2013-01-25 06:42:00,-2.0,-9.0,27.99,ENE,69,1.0,2.0,70,0.00,,,0.00,,2013-01-25 11:42:00,
2013-01-25 06:52:00,-2.0,-9.0,27.99,ENE,69,1.0,2.0,70,0.00,,,0.00,,2013-01-25 11:52:00,
2013-01-25 07:02:00,-3.0,-10.0,27.99,SW,231,0.0,2.0,72,0.00,,,0.00,,2013-01-25 12:02:00,
2013-01-25 07:12:00,-3.0,-10.0,27.99,SW,231,0.0,2.0,72,0.00,,,0.00,,2013-01-25 12:12:00,
2013-01-25 07:22:00,-3.0,-10.0,27.99,SW,231,0.0,2.0,72,0.00,,,0.00,,2013-01-25 12:22:00,
2013-01-25 07:32:00,-3.0,-9.0,28.00,NNE,30,2.0,5.0,73,0.00,,,0.00,,2013-01-25 12:32:00,
2013-01-25 07:42:00,-3.0,-9.0,28.00,NNE,30,2.0,5.0,73,0.00,,,0.00,,2013-01-25 12:42:00,
2013-01-25 07:53:00,-3.0,-9.0,28.00,NNE,30,2.0,5.0,73,0.00,,,0.00,,2013-01-25 12:53:00,
2013-01-25 08:03:00,-3.0,-10.0,28.00,West,259,2.0,5.0,72,0.00,,,0.00,,2013-01-25 13:03:00,
2013-01-25 08:12:00,-3.0,-10.0,28.00,West,259,2.0,5.0,72,0.00,,,0.00,,2013-01-25 13:12:00,
2013-01-25 08:22:00,-3.0,-10.0,28.00,West,259,2.0,5.0,72,0.00,,,0.00,,2013-01-25 13:22:00,
2013-01-25 08:33:00,-1.0,-9.0,28.01,NW,307,1.0,5.0,69,0.00,,,0.00,,2013-01-25 13:33:00,
2013-01-25 08:43:00,-1.0,-9.0,28.01,NW,307,1.0,5.0,69,0.00,,,0.00,,2013-01-25 13:43:00,
2013-01-25 08:53:00,0.0,-8.0,28.01,SW,231,1.0,3.0,67,0.00,,,0.00,,2013-01-25 13:53:00,
2013-01-25 09:03:00,1.0,-8.0,28.01,SW,226,2.0,5.0,65,0.00,,,0.00,,2013-01-25 14:03:00,
2013-01-25 09:12:00,1.0,-8.0,28.01,SW,226,2.0,5.0,65,0.00,,,0.00,,2013-01-25 14:12:00,
2013-01-25 09:23:00,2.0,-8.0,28.01,WSW,245,3.0,6.0,63,0.00,,,0.00,,2013-01-25 14:23:00,
2013-01-25 09:33:00,2.0,-8.0,28.01,WSW,245,3.0,6.0,63,0.00,,,0.00,,2013-01-25 14:33:00,
2013-01-25 09:42:00,2.0,-8.0,28.01,WSW,245,3.0,6.0,63,0.00,,,0.00,,2013-01-25 14:42:00,
2013-01-25 09:53:00,3.0,-8.0,28.01,WNW,293,2.0,7.0,60,0.00,,,0.00,,2013-01-25 14:53:00,
2013-01-25 10:01:00,5.0,-7.0,28.01,WSW,253,3.0,7.0,57,0.00,,,0.00,,2013-01-25 15:01:00,
2013-01-25 10:02:00,4.0,-7.0,28.01,NNW,333,5.0,7.0,58,0.00,,,0.00,,2013-01-25 15:02:00,
2013-01-25 10:13:00,4.0,-7.0,28.01,NNW,333,5.0,7.0,58,0.00,,,0.00,,2013-01-25 15:13:00,
2013-01-25 10:22:00,5.0,-7.0,28.01,WSW,253,3.0,7.0,57,0.00,,,0.00,,2013-01-25 15:22:00,
2013-01-25 10:32:00,5.0,-7.0,28.01,WSW,253,3.0,7.0,57,0.00,,,0.00,,2013-01-25 15:32:00,
2013-01-25 10:42:00,5.0,-7.0,28.01,WSW,253,3.0,7.0,57,0.00,,,0.00,,2013-01-25 15:42:00,
2013-01-25 10:53:00,5.0,-7.0,28.01,WSW,253,3.0,7.0,57,0.00,,,0.00,,2013-01-25 15:53:00,
2013-01-25 20:02:00,11.0,-4.0,27.81,NNW,330,1.0,3.0,51,0.00,,,0.00,,2013-01-26 01:02:00,
2013-01-25 20:12:00,11.0,-4.0,27.81,NNW,330,1.0,3.0,51,0.00,,,0.00,,2013-01-26 01:12:00,
2013-01-25 20:22:00,11.0,-4.0,27.80,West,276,0.0,1.0,51,0.00,,,0.00,,2013-01-26 01:22:00,
2013-01-25 20:32:00,11.0,-4.0,27.80,West,271,1.0,3.0,50,0.00,,,0.00,,2013-01-26 01:32:00,
2013-01-25 20:42:00,11.0,-4.0,27.80,West,271,1.0,3.0,50,0.00,,,0.00,,2013-01-26 01:42:00,
2013-01-25 20:52:00,11.0,-4.0,27.80,West,271,1.0,3.0,50,0.00,,,0.00,,2013-01-26 01:52:00,
2013-01-25 21:02:00,11.0,-4.0,27.81,WNW,287,2.0,5.0,49,0.00,,,0.00,,2013-01-26 02:02:00,
2013-01-25 21:11:00,11.0,-4.0,27.81,WNW,287,2.0,5.0,49,0.00,,,0.00,,2013-01-26 02:11:00,
2013-01-25 21:22:00,11.0,-4.0,27.81,WNW,287,2.0,5.0,49,0.00,,,0.00,,2013-01-26 02:22:00,
2013-01-25 21:32:00,11.0,-4.0,27.81,WNW,287,2.0,5.0,49,0.00,,,0.00,,2013-01-26 02:32:00,
2013-01-25 21:42:00,11.0,-4.0,27.81,WNW,287,2.0,5.0,49,0.00,,,0.00,,2013-01-26 02:42:00,
2013-01-25 22:22:00,10.0,-4.0,27.78,WNW,291,0.0,1.0,52,0.00,,,0.00,,2013-01-26 03:22:00,
2013-01-25 22:32:00,10.0,-4.0,27.78,WNW,291,0.0,1.0,52,0.00,,,0.00,,2013-01-26 03:32:00,
2013-01-25 22:43:00,10.0,-4.0,27.78,WNW,291,0.0,1.0,52,0.00,,,0.00,,2013-01-26 03:43:00,
2013-01-25 22:52:00,10.0,-4.0,27.78,WNW,291,0.0,1.0,52,0.00,,,0.00,,2013-01-26 03:52:00,
2013-01-25 23:02:00,9.0,0.0,27.78,WNW,283,2.0,5.0,66,0.00,,,0.00,,2013-01-26 04:02:00,
2013-01-25 23:12:00,9.0,0.0,27.78,WNW,283,2.0,5.0,66,0.00,,,0.00,,2013-01-26 04:12:00,
2013-01-25 23:21:00,9.0,2.0,27.78,West,260,1.0,4.0,71,0.00,,,0.00,,2013-01-26 04:21:00,
2013-01-25 23:32:00,8.0,1.0,27.78,West,278,2.0,4.0,74,0.00,,,0.00,,2013-01-26 04:32:00,
2013-01-25 23:42:00,8.0,1.0,27.78,West,278,2.0,4.0,74,0.00,,,0.00,,2013-01-26 04:42:00,
2013-01-25 23:52:00,8.0,1.0,27.78,West,278,2.0,4.0,74,0.00,,,0.00,,2013-01-26 04:52:00,